Weather History for KMGW - February, 2015

Change the Weather History Date:

Wednesday, February 18, 2015

  Actual Average Record
Temperature  
Mean Temperature 15 °F 35 °F  
Max Temperature 23 °F 44 °F 73 °F (1981)
Min Temperature 7 °F 26 °F -2 °F (1973)
Degree Days  
Heating Degree Days 50 30  
Month to date heating degree days 728 572  
Since 1 July heating degree days 3711 3599  
Cooling Degree Days 0 0  
Month to date cooling degree days 0 0  
Year to date cooling degree days 0 0  
Moisture  
Dew Point 6 °F    
Average Humidity 57    
Maximum Humidity 71    
Minimum Humidity 42    
Precipitation  
Precipitation 0.02 in 0.10 in 2.47 in (2000)
Month to date precipitation 1.18 1.63  
Year to date precipitation 3.74 4.44  
Sea Level Pressure  
Sea Level Pressure 29.81 in    
Wind  
Wind Speed 8 mph (WSW)    
Max Wind Speed 18 mph    
Max Gust Speed 28 mph    
Visibility 5 miles    
Events Snow    
T = Trace of Precipitation, MM = Missing Value Source: NWS Daily Summary

Daily Weather History Graph

Daily Weather History Graph

Search for Another Location

Airport or City:

Trip Planner

Search our weather history database for the weather conditions in past years. The results will help you decide how hot, cold, wet, or windy it might be!

Date:

Astronomy

Feb. 18, 2015 Rise Set
Actual Time 7:08 AM EST 5:59 PM EST
Civil Twilight 6:40 AM EST 6:26 PM EST
Nautical Twilight 6:09 AM EST 6:58 PM EST
Astronomical Twilight 5:38 AM EST 7:29 PM EST
Moon 6:36 AM EST (2/18) 5:58 PM EST (2/18)
Length of Visible Light 11h 45m
Length of Day
10h 50m
Waning Crescent, 0% of the Moon is Illuminated
Feb 18
Waning Crescent
Feb 18
New
Feb 25
First Quarter
Mar 5
Full
Mar 13
Last Quarter

Hourly Weather History & Observations

Time (EST) Temp. Windchill Dew Point Humidity Pressure Visibility Wind Dir Wind Speed Gust Speed Precip Events Conditions
12:53 AM 17.1 °F 11.7 °F 1.0 °F 50% 29.98 in 10.0 mi SSW 3.5 mph - N/A   Overcast
1:53 AM 17.1 °F 11.7 °F 1.9 °F 52% 29.96 in 10.0 mi South 3.5 mph - N/A   Overcast
2:53 AM 18.0 °F 7.7 °F 1.9 °F 50% 29.94 in 10.0 mi SSW 8.1 mph - N/A   Overcast
3:53 AM 18.0 °F 8.7 °F 3.0 °F 52% 29.92 in 10.0 mi South 6.9 mph - N/A   Overcast
4:53 AM 18.0 °F 9.8 °F 3.9 °F 54% 29.91 in 10.0 mi South 5.8 mph - N/A   Overcast
5:53 AM 18.0 °F 9.8 °F 5.0 °F 57% 29.89 in 10.0 mi Variable 5.8 mph - N/A   Overcast
6:53 AM 17.1 °F 7.6 °F 5.0 °F 59% 29.86 in 10.0 mi South 6.9 mph - N/A   Clear
7:53 AM 17.1 °F 7.6 °F 6.1 °F 62% 29.85 in 10.0 mi South 6.9 mph - N/A   Partly Cloudy
8:10 AM 18.0 °F 6.9 °F 6.1 °F 60% 29.78 in 10.0 mi South 9.2 mph - N/A   Mostly Cloudy
8:35 AM 19.0 °F 8.2 °F 7.0 °F 59% 29.76 in 10.0 mi South 9.2 mph - N/A   Mostly Cloudy
8:53 AM 19.9 °F 9.3 °F 7.0 °F 57% 29.82 in 10.0 mi South 9.2 mph - N/A   Mostly Cloudy
9:53 AM 19.9 °F 7.9 °F 6.1 °F 55% 29.78 in 10.0 mi South 11.5 mph 19.6 mph N/A   Scattered Clouds
10:53 AM 21.9 °F 15.7 °F 6.1 °F 51% 29.76 in 10.0 mi SSW 4.6 mph - N/A   Overcast
11:40 AM 21.9 °F 15.7 °F 9.0 °F 58% 29.69 in 2.5 mi Variable 4.6 mph - 0.00 in Snow Light Snow
11:50 AM 21.2 °F 14.9 °F 10.4 °F 63% 29.69 in 1.5 mi Variable 4.6 mph - 0.00 in Snow Light Snow
11:53 AM 21.0 °F 14.6 °F 10.0 °F 63% 29.75 in 1.5 mi SW 4.6 mph - 0.00 in Snow Light Snow
12:03 PM 21.0 °F 14.6 °F 12.0 °F 68% 29.68 in 2.0 mi Variable 4.6 mph - 0.00 in Snow Light Snow
12:12 PM 21.0 °F 13.4 °F 12.0 °F 68% 29.68 in 1.8 mi WSW 5.8 mph - 0.00 in Snow Light Snow
12:35 PM 21.0 °F 11.4 °F 12.0 °F 68% 29.67 in 2.0 mi SSW 8.1 mph - 0.00 in Snow Light Snow
12:48 PM 21.2 °F 13.6 °F 12.2 °F 68% 29.67 in 1.5 mi South 5.8 mph - 0.00 in Snow Light Snow
12:53 PM 21.0 °F 11.4 °F 12.9 °F 71% 29.72 in 1.2 mi South 8.1 mph - 0.00 in Snow Light Snow
1:53 PM 21.9 °F 12.5 °F 14.0 °F 72% 29.72 in 1.8 mi SW 8.1 mph 20.7 mph 0.01 in Snow Light Snow
2:18 PM 21.9 °F 11.7 °F 14.0 °F 72% 29.68 in 0.8 mi SW 9.2 mph 21.9 mph 0.00 in Snow Light Snow
2:22 PM 21.9 °F 10.4 °F 12.9 °F 68% 29.68 in 2.0 mi SW 11.5 mph 21.9 mph 0.00 in Snow Light Snow
2:29 PM 21.9 °F 11.0 °F 12.9 °F 68% 29.68 in 4.0 mi WSW 10.4 mph 19.6 mph 0.00 in   Haze
2:35 PM 21.9 °F 8.2 °F 12.9 °F 68% 29.68 in 1.8 mi SW 16.1 mph 21.9 mph 0.00 in Snow Light Snow
2:44 PM 21.9 °F 12.5 °F 14.0 °F 72% 29.69 in 0.5 mi WSW 8.1 mph 23.0 mph 0.00 in Snow Snow
2:53 PM 21.0 °F 8.6 °F 12.9 °F 71% 29.76 in 0.8 mi West 12.7 mph 17.3 mph 0.00 in Snow Light Snow
2:56 PM 21.0 °F 8.6 °F 12.9 °F 71% 29.71 in 0.2 mi West 12.7 mph 24.2 mph 0.00 in Snow Heavy Snow
3:13 PM 19.0 °F 6.8 °F 12.0 °F 74% 29.73 in 0.5 mi West 11.5 mph 18.4 mph 0.01 in Snow Snow
3:26 PM 18.0 °F 4.8 °F 9.0 °F 68% 29.74 in 1.0 mi West 12.7 mph 25.3 mph 0.01 in Snow Light Snow
3:31 PM 19.0 °F 7.5 °F 8.1 °F 62% 29.74 in 3.0 mi WNW 10.4 mph 24.2 mph 0.01 in Snow Light Snow
3:45 PM 19.0 °F 5.6 °F 3.9 °F 52% 29.76 in 6.0 mi West 13.8 mph 26.5 mph 0.01 in   Haze
3:53 PM 19.9 °F 7.3 °F 6.1 °F 55% 29.82 in 9.0 mi West 12.7 mph 20.7 mph 0.01 in   Mostly Cloudy
4:17 PM 19.0 °F 5.0 °F 7.0 °F 59% 29.78 in 1.5 mi WNW 15.0 mph 25.3 mph 0.00 in Snow Light Snow
4:21 PM 17.1 °F 3.6 °F 8.1 °F 68% 29.79 in 0.2 mi WNW 12.7 mph 25.3 mph 0.00 in Snow Heavy Snow
4:33 PM 17.1 °F 2.5 °F 8.1 °F 68% 29.79 in 1.0 mi West 15.0 mph 23.0 mph 0.00 in Snow Light Snow
4:43 PM 18.0 °F 4.8 °F 6.1 °F 60% 29.79 in 3.0 mi West 12.7 mph 25.3 mph 0.00 in Snow Light Snow
4:53 PM 19.0 °F 8.2 °F 3.0 °F 50% 29.86 in 9.0 mi West 9.2 mph 24.2 mph 0.00 in   Mostly Cloudy
5:33 PM 16.0 °F 2.3 °F 6.1 °F 65% 29.83 in 1.8 mi WNW 12.7 mph 19.6 mph N/A   Haze
5:36 PM 15.1 °F -0.6 °F 6.1 °F 68% 29.83 in 0.8 mi West 16.1 mph 25.3 mph 0.00 in Snow Light Snow
5:44 PM 15.1 °F 2.5 °F 5.0 °F 64% 29.84 in 1.2 mi West 10.4 mph 25.3 mph 0.00 in Snow Light Snow
5:47 PM 15.8 °F 2.7 °F 3.2 °F 58% 29.84 in 3.0 mi West 11.5 mph 23.0 mph 0.00 in Snow Light Snow
5:53 PM 15.1 °F 2.5 °F 3.9 °F 61% 29.91 in 6.0 mi West 10.4 mph 18.4 mph 0.00 in   Haze
6:53 PM 14.0 °F -0.2 °F -6.0 °F 41% 29.96 in 10.0 mi West 12.7 mph 24.2 mph N/A   Partly Cloudy
7:53 PM 12.0 °F -0.4 °F -8.0 °F 41% 29.99 in 10.0 mi West 9.2 mph 18.4 mph N/A   Clear
8:53 PM 10.9 °F -4.7 °F -5.1 °F 49% 30.00 in 10.0 mi West 13.8 mph 21.9 mph N/A   Partly Cloudy
9:53 PM 9.0 °F -4.2 °F -4.0 °F 56% 30.02 in 10.0 mi West 9.2 mph 17.3 mph N/A   Scattered Clouds
10:53 PM 8.1 °F -4.3 °F -4.0 °F 58% 30.03 in 10.0 mi West 8.1 mph - N/A   Mostly Cloudy
11:14 PM 8.1 °F -2.0 °F -4.0 °F 58% 29.96 in 10.0 mi Variable 5.8 mph - N/A   Mostly Cloudy
11:53 PM 7.0 °F -3.3 °F -4.0 °F 61% 30.03 in 10.0 mi Variable 5.8 mph - N/A   Overcast